Lapse_Rate
4.4 4.1 3.4 3.6 6.3 6.5 6.5 6.5 6.5 6.5 6.5 5.2 5.2 5.8 6.4 5.8 6.5 6.5 4.5 3.9 3.5 3.2 4.8 4.8 4.8 4.6 4.9 5.1 5.3 5.5 5.8 6.2 6.4 6.8 7.2 7.6 7.6 7.5 7.3 6.7 6.8 7.2 6.7 6.3 6.1 6.1 5.9 6.1 6.7
3.6 4.4 2.9 3.0 6.5 6.5 6.5 6.5 6.5 6.5 5.5 4.7 4.8 5.3 5.8 6.5 5.4 5.5 4.4 4.3 3.9 3.6 4.7 4.6 4.7 4.3 4.5 4.8 4.9 5.0 5.3 6.0 7.0 7.1 7.5 7.9 8.0 7.7 6.9 6.4 6.2 6.3 6.2 5.9 6.0 6.0 6.1 6.3 6.4
3.9 4.9 4.0 6.5 6.5 6.5 6.5 6.5 6.5 6.2 4.8 5.8 5.7 5.3 5.6 6.2 4.9 4.5 4.7 4.8 4.4 3.7 4.4 4.3 4.6 4.4 4.4 4.6 4.6 5.0 5.8 6.7 7.2 7.3 7.5 8.0 7.7 7.2 6.5 6.4 6.0 5.7 5.7 5.7 5.5 5.7 5.5 5.3 5.4
4.2 3.6 3.4 6.5 6.5 6.5 6.5 6.5 6.2 6.4 5.8 5.6 5.6 6.4 5.6 4.2 4.4 4.8 5.4 5.1 4.1 4.3 3.9 4.1 4.5 4.3 4.3 4.9 4.7 4.9 6.1 6.7 7.1 6.9 6.9 7.4 7.4 6.9 6.4 6.1 5.9 5.7 5.6 5.5 5.4 5.4 5.4 5.4 5.6
4.1 3.6 6.5 6.5 6.5 6.5 6.5 5.7 5.8 6.5 6.1 5.6 5.8 6.3 5.7 5.7 3.5 4.3 5.7 5.4 5.0 4.4 3.8 4.1 4.0 4.3 4.3 4.6 4.4 4.8 5.6 6.8 6.6 6.6 7.3 7.3 7.3 7.2 6.4 5.8 5.6 5.4 5.4 5.6 5.7 5.8 5.9 6.0 6.2
4.9 3.6 6.5 6.5 6.5 6.5 6.4 4.5 6.2 6.0 6.0 5.3 6.1 5.8 5.8 5.1 4.7 5.0 5.7 4.2 4.8 4.0 4.3 4.5 4.1 3.9 4.4 4.8 4.1 4.5 5.1 5.7 6.5 6.5 7.0 7.0 7.2 7.4 6.5 5.8 5.5 5.4 5.4 5.4 5.6 5.9 6.1 6.2 6.3
6.0 6.5 6.5 6.5 6.5 6.5 6.5 4.8 5.8 5.5 5.6 5.3 5.8 6.5 5.7 6.2 4.9 5.4 5.0 4.1 4.3 4.3 4.4 4.6 4.2 4.3 4.5 4.5 3.8 3.8 4.1 5.5 6.1 6.2 6.1 6.1 6.5 6.7 6.3 5.9 5.5 5.4 5.4 5.4 5.5 5.8 6.0 6.0 6.0
4.0 6.5 6.5 6.5 6.5 6.5 5.9 6.1 5.2 4.4 5.8 5.7 6.0 6.3 6.1 5.9 5.5 5.6 5.3 4.2 4.3 4.2 4.2 2.9 3.6 4.0 3.9 4.0 3.8 3.8 3.6 3.6 4.4 4.8 5.3 5.5 5.9 6.2 5.9 5.3 5.3 5.3 5.3 5.2 5.5 5.8 6.0 6.0 6.1
6.2 6.5 6.5 6.5 6.5 6.5 4.9 6.4 6.3 6.0 5.2 5.2 4.9 5.4 5.1 5.6 5.7 5.6 5.4 4.8 4.6 4.2 4.0 3.4 2.9 3.1 3.2 3.5 3.6 3.9 3.7 3.6 3.7 4.2 5.0 5.3 5.2 5.4 5.2 5.1 4.9 5.0 5.3 5.3 5.5 5.7 5.8 5.8 6.0
5.8 6.5 6.5 6.5 6.4 6.5 6.0 6.1 5.6 5.9 5.9 5.8 4.9 5.5 5.8 5.8 5.5 5.4 4.9 5.1 4.6 4.4 4.7 4.4 3.9 3.5 3.8 4.7 3.4 3.1 3.2 3.3 3.0 3.7 4.0 4.5 4.8 5.0 5.0 4.9 4.8 5.1 5.2 5.4 5.9 6.0 6.0 5.8 5.6
5.9 6.5 6.5 6.4 5.8 6.0 6.3 5.8 5.6 6.1 6.5 4.7 4.9 4.8 4.4 3.9 4.6 5.1 4.8 5.1 4.6 5.0 5.0 5.1 4.7 4.6 4.2 4.2 3.3 3.0 2.7 2.4 2.5 3.1 3.9 4.5 5.1 4.6 4.3 4.2 4.4 4.8 5.0 5.0 5.6 5.7 6.0 6.0 5.7
6.5 6.1 6.2 6.3 6.1 6.2 6.4 5.7 5.9 6.1 6.0 4.8 5.2 5.4 6.6 5.4 3.9 4.5 4.8 4.8 4.7 5.2 5.7 5.1 5.2 5.3 5.1 4.1 3.0 3.5 3.1 2.7 2.2 2.8 4.0 4.0 3.3 4.4 3.2 3.0 3.5 3.8 4.4 4.6 4.9 4.7 5.5 5.3 5.0
6.5 6.5 6.1 5.8 5.1 6.2 5.9 6.1 6.2 5.3 4.8 3.9 3.8 4.7 6.2 5.4 4.7 4.8 4.7 4.6 4.0 5.4 5.7 5.9 5.5 5.4 4.4 4.2 4.8 3.9 4.4 4.2 4.0 3.8 4.4 4.5 3.9 4.1 3.6 3.8 4.4 4.0 4.6 4.8 4.2 4.3 4.1 4.0 3.9
5.9 6.2 6.3 6.0 5.7 6.0 6.4 6.1 6.0 5.9 4.5 3.9 4.0 4.0 4.1 4.8 4.6 4.5 4.2 4.7 3.5 4.8 5.3 5.9 5.4 5.2 4.7 4.6 5.0 4.5 5.3 5.3 5.2 5.2 5.5 5.2 5.1 4.1 3.6 3.5 3.5 3.5 4.8 4.8 4.3 3.7 3.0 2.3 2.6
6.1 6.5 6.5 6.2 6.0 6.4 5.7 6.5 6.5 4.9 4.4 4.6 4.2 3.4 4.0 4.3 4.2 4.4 4.2 3.8 4.5 3.2 4.8 5.3 5.6 5.5 4.8 4.8 5.4 5.7 5.6 6.9 6.1 6.5 6.2 6.1 5.9 4.4 3.8 2.9 2.0 2.8 4.5 4.8 4.4 3.6 3.1 1.1 1.7
6.5 6.5 6.5 6.5 6.4 6.1 5.9 6.5 6.5 4.7 4.7 4.8 5.1 5.2 4.6 4.6 4.4 4.0 4.1 4.0 3.3 4.0 2.9 5.2 6.7 5.2 5.3 5.1 4.4 6.1 6.4 6.7 4.4 6.7 7.1 6.3 5.1 4.6 3.2 2.2 1.3 2.7 3.5 3.2 2.1 2.0 0.9 -0.0 0.1
6.5 6.5 6.5 6.5 6.3 6.5 6.5 6.5 6.5 5.6 4.9 4.9 4.2 4.2 5.1 5.1 5.2 3.8 4.1 4.7 4.7 2.8 3.9 3.8 5.7 5.3 4.9 4.9 5.1 6.3 5.6 5.9 3.7 5.9 6.3 5.8 4.3 3.9 3.1 1.4 1.0 2.8 2.1 1.4 2.4 0.8 0.4 -0.0 0.1
6.5 6.5 6.5 6.5 6.5 6.5 6.5 6.5 6.5 4.5 4.8 4.7 3.6 3.2 2.9 4.1 4.7 5.4 4.4 3.4 4.7 5.4 3.0 2.8 4.7 5.0 5.4 5.7 5.4 3.9 2.4 6.2 5.9 5.6 6.3 4.6 3.9 3.1 1.9 1.0 1.4 1.9 0.8 0.6 1.0 0.7 -0.9 -0.3 -0.2
6.5 6.5 6.5 6.5 6.5 6.5 6.5 6.5 6.5 5.9 4.9 5.4 5.9 4.8 4.3 4.4 4.3 3.4 3.4 2.9 2.7 2.6 2.7 2.6 2.3 4.7 5.1 5.2 5.2 4.8 4.9 5.4 5.4 5.3 5.2 4.1 3.2 2.1 1.6 1.0 0.9 1.2 1.1 0.7 0.6 -0.4 0.1 -0.6 -1.2
6.5 6.5 6.5 6.5 6.5 6.5 6.5 6.5 6.5 6.5 6.4 6.2 6.2 5.0 3.9 4.2 3.5 3.8 3.7 3.4 3.0 3.3 2.4 2.1 2.3 2.9 4.8 5.6 5.7 2.5 1.5 2.7 3.3 3.9 3.8 2.6 2.0 1.7 1.4 1.5 1.3 1.0 0.3 0.2 0.2 0.2 -0.4 -0.6 -1.4
6.5 6.5 6.5 6.5 6.5 6.5 6.5 6.5 6.5 6.5 6.1 6.3 6.3 6.2 6.0 5.1 5.3 3.5 3.0 3.2 2.8 2.8 2.5 3.2 2.5 2.6 4.0 4.0 2.3 -0.2 -0.5 -0.2 0.4 0.6 1.0 0.9 0.9 1.5 1.6 1.7 1.4 0.5 0.1 -0.2 -0.5 -0.5 0.1 -0.5 -0.6
6.5 6.5 6.5 6.5 6.5 6.5 6.5 6.5 6.5 6.5 6.5 6.5 4.3 3.8 4.7 5.1 4.6 3.5 3.2 2.8 2.4 2.1 2.2 3.1 3.2 2.6 3.2 2.4 2.2 2.6 3.0 2.6 0.7 0.2 -1.7 -0.8 0.4 1.3 1.4 1.5 1.3 0.5 -0.4 -0.6 -0.9 -0.7 -0.7 -0.5 -0.1
6.5 6.5 6.5 6.5 6.5 6.5 6.5 6.5 6.5 6.5 6.5 6.5 6.5 3.3 1.8 2.5 3.0 2.4 2.8 4.0 4.1 2.3 2.4 1.8 3.5 3.5 2.6 4.4 2.4 2.2 2.8 0.5 -1.5 -2.1 -1.9 -1.8 -2.1 1.0 1.1 1.9 1.6 1.5 0.8 -0.7 -0.7 0.0 -0.8 -0.5 -0.6
6.5 6.5 6.5 6.5 6.5 6.5 6.5 6.5 6.5 6.5 6.5 6.5 6.5 4.9 4.2 2.5 2.1 3.5 4.6 4.5 3.6 2.2 1.8 1.6 2.0 2.8 2.2 3.3 1.9 3.1 0.5 -1.3 -1.5 -1.7 -2.2 -1.9 -1.5 0.3 1.4 2.5 2.7 1.7 1.2 0.3 -0.5 -0.3 -0.3 -0.4 -0.5
6.5 6.5 6.5 6.5 6.5 6.5 6.5 6.5 6.5 6.5 6.5 6.5 6.5 4.1 4.7 4.0 3.3 2.6 3.5 2.9 3.2 2.7 2.3 2.0 1.9 2.5 2.4 2.2 1.9 1.5 -0.0 -0.3 -1.1 -1.6 -1.9 -2.0 -0.4 1.6 1.7 2.4 2.1 1.4 1.0 -0.2 -0.1 -0.7 -1.1 -0.5 -0.5
6.5 6.5 6.5 6.5 6.5 6.5 6.5 6.5 6.5 6.5 6.1 4.7 4.8 3.8 3.9 3.2 2.1 2.7 3.7 2.9 2.9 2.7 2.3 1.9 2.0 2.4 2.0 2.1 1.5 0.6 -0.6 -0.9 -1.2 -1.1 -2.0 -0.4 1.0 1.2 1.8 2.0 2.0 1.5 1.3 -0.2 -0.7 -1.4 -1.4 -0.8 -1.0
6.5 6.5 6.5 6.5 6.5 6.5 6.5 6.5 6.5 6.5 6.5 6.3 6.0 5.1 3.7 2.3 1.7 3.3 3.9 3.4 3.5 2.4 2.0 1.8 2.7 2.4 2.1 2.0 1.5 0.4 -0.4 -1.1 -1.4 -2.2 -1.2 0.3 1.2 1.8 1.5 2.0 2.1 2.0 1.4 0.8 -0.1 -1.0 -0.4 -0.4 -0.6
6.5 6.5 6.5 6.5 6.5 6.5 6.5 6.5 6.5 6.5 6.5 6.5 6.5 5.4 3.4 3.4 4.9 4.5 3.6 3.8 3.0 2.2 1.7 1.9 1.7 2.9 1.9 1.8 1.6 0.2 -1.1 -1.3 -1.7 -1.5 -0.2 0.8 2.1 2.9 1.8 2.0 2.6 2.0 2.1 0.1 0.0 -0.7 -0.2 0.2 -0.1
6.5 6.5 6.5 6.5 6.5 6.5 6.5 6.5 6.5 6.5 6.5 6.5 6.5 5.4 5.3 5.3 3.8 3.6 3.3 4.0 3.3 2.1 1.8 2.1 1.7 2.2 1.4 1.6 1.4 0.4 0.1 -0.7 -0.9 0.2 0.8 1.6 3.1 2.6 2.4 2.4 2.8 3.1 2.2 0.9 0.0 -0.1 0.6 1.2 1.4
6.5 6.5 6.5 6.5 6.5 6.5 6.5 6.5 6.5 6.5 6.5 6.3 6.2 6.2 6.1 7.0 5.5 3.6 3.8 4.2 3.3 2.6 2.0 2.8 2.3 2.2 1.1 1.8 1.3 1.3 0.8 0.9 1.3 2.0 3.0 3.2 3.2 3.2 3.0 2.9 3.9 2.8 1.7 1.1 0.4 1.2 1.3 1.3 1.8
Wind_Speed
9 15 3 3 3 4 3 8 3 7 3 1 2 4 3 3 1 2 1 14 19 14 18 20 21 21 20 18 17 15 14 13 15 16 16 15 14 14 14 13 12 12 13 13 13 15 14 14 13
5 5 4 1 4 1 5 8 11 8 4 5 6 4 4 2 3 7 7 16 19 17 18 19 22 22 22 20 18 15 15 15 15 18 16 15 14 14 14 13 13 13 13 12 12 13 12 12 11
3 2 2 4 4 6 5 5 7 3 6 4 3 0 1 2 3 8 10 18 19 16 18 19 23 22 22 20 18 17 17 18 19 16 14 15 16 15 15 14 14 14 13 13 13 12 12 11 9
1 4 3 2 8 7 12 9 4 1 4 5 3 5 4 5 10 8 13 20 18 15 20 22 23 23 22 19 19 19 18 19 19 16 16 17 16 15 14 14 14 14 13 12 11 11 10 9 8
1 2 2 4 9 6 8 7 7 2 3 2 0 2 3 5 7 10 14 18 17 16 21 23 24 23 22 20 19 18 18 21 19 18 18 16 14 13 13 14 13 12 11 10 10 9 8 7 6
1 3 1 9 6 5 9 12 6 4 2 2 2 2 2 7 5 7 9 14 16 16 19 22 25 24 22 20 19 18 18 20 18 16 15 14 12 11 15 13 13 11 10 10 9 8 8 6 4
5 3 6 4 5 6 11 12 5 8 5 5 2 3 1 2 6 6 10 15 15 14 13 16 19 22 22 20 19 19 19 18 17 15 14 11 10 12 16 14 13 11 10 9 8 7 7 7 5
4 3 4 6 8 8 9 3 5 8 6 1 3 3 4 5 8 7 7 13 15 13 13 10 13 16 16 16 19 19 18 17 15 16 14 9 9 17 18 15 13 10 10 9 9 9 7 6 5
2 2 5 8 8 7 13 5 4 1 5 4 4 4 6 9 8 5 4 8 12 11 12 11 10 11 13 14 16 17 18 18 17 17 15 12 14 16 18 14 13 11 10 9 8 8 7 6 3
5 6 7 4 8 7 6 3 6 3 3 0 6 4 6 7 7 8 6 6 11 13 12 13 13 12 14 13 14 14 15 15 16 15 16 14 14 15 14 15 13 12 11 9 7 7 6 4 2
5 5 4 10 12 4 4 6 5 4 2 6 6 8 7 8 9 9 7 7 8 10 11 13 13 15 14 10 12 10 11 13 14 16 15 14 11 14 14 14 11 10 9 7 6 5 6 6 6
5 4 13 13 13 5 4 5 6 2 4 8 4 4 5 7 8 9 9 9 9 11 13 16 14 13 13 15 11 12 9 11 10 15 18 11 8 11 10 10 12 11 10 6 6 6 6 7 8
6 6 10 9 9 5 4 5 5 7 8 10 9 5 3 5 7 6 8 8 9 11 12 16 16 13 10 11 9 11 8 11 14 14 17 15 10 7 11 10 11 11 11 5 5 6 6 6 7
4 4 2 5 7 4 6 6 2 3 8 11 11 12 6 7 9 6 7 8 8 13 13 13 14 16 13 10 11 9 13 15 14 15 17 18 16 9 6 6 8 9 11 9 9 6 5 3 4
4 2 6 5 6 5 7 7 7 9 10 11 12 11 16 9 9 10 9 7 8 7 13 16 14 18 17 14 12 9 11 16 11 15 19 18 18 11 12 6 4 8 10 10 9 7 6 4 3
3 3 1 7 9 8 10 13 6 12 9 12 18 16 14 19 10 11 11 10 8 8 9 15 14 18 18 14 11 9 10 12 10 15 18 18 16 19 12 6 5 11 8 8 4 3 4 3 3
2 3 5 6 8 7 11 3 14 10 9 9 12 13 16 17 16 11 12 13 13 9 9 13 16 17 18 15 12 11 8 8 9 13 14 14 18 18 14 6 8 13 8 4 3 3 3 2 2
6 5 4 6 5 2 5 9 7 9 7 10 10 10 9 12 17 18 14 11 14 14 9 9 12 17 18 13 11 6 5 7 13 9 13 16 17 18 12 8 9 11 5 5 4 4 4 2 1
4 4 4 4 5 2 6 8 10 11 9 14 16 12 14 15 12 8 9 9 10 9 9 10 10 16 13 11 10 9 7 8 8 8 14 17 16 17 14 6 6 7 6 6 6 4 4 3 3
4 5 5 5 5 5 10 21 18 19 22 20 21 13 14 14 10 10 9 7 8 9 9 7 8 10 15 13 12 5 5 3 5 7 10 14 17 16 13 10 7 7 6 6 6 5 3 2 3
1 3 4 5 6 5 8 10 8 7 13 18 18 19 16 16 17 10 9 10 9 9 9 9 8 9 10 12 6 4 6 3 2 3 7 8 14 14 15 13 9 7 5 6 5 5 6 4 1
0 4 4 4 5 4 5 7 7 8 9 7 10 12 17 18 12 10 9 8 8 8 8 9 9 9 9 10 9 15 12 10 4 6 4 7 13 12 14 13 11 8 5 6 4 4 4 4 4
3 6 4 3 3 5 2 2 7 6 6 7 7 9 11 15 14 12 12 12 11 9 8 8 10 10 9 13 12 12 11 6 5 5 10 8 5 10 14 13 11 10 6 6 7 5 6 2 4
4 3 3 3 2 3 8 6 5 3 5 2 4 7 4 9 8 5 4 1 2 2 4 7 8 9 8 14 13 16 15 12 10 9 8 7 6 7 10 12 10 10 8 8 7 6 6 5 4
4 5 3 3 1 6 1 5 6 9 10 4 10 8 2 5 6 7 6 3 3 5 7 5 8 9 8 9 15 14 15 17 18 15 9 11 8 8 10 10 9 8 7 6 6 6 6 5 4
5 6 4 5 3 4 1 7 6 12 13 8 7 8 7 8 6 7 5 4 5 6 7 8 9 9 9 10 14 13 15 10 9 10 10 8 9 11 10 9 9 8 9 8 7 4 4 5 4
4 3 2 1 2 3 5 7 8 8 7 8 3 4 8 10 5 6 5 4 4 6 7 8 10 9 8 11 13 13 13 14 12 11 10 7 6 8 12 11 10 9 8 7 7 4 5 5 4
4 4 3 2 3 5 5 5 7 5 5 6 8 8 9 5 3 1 2 4 4 5 6 9 8 11 8 10 13 12 13 11 12 12 12 12 10 12 13 12 11 11 7 7 6 5 5 5 3
3 4 4 2 4 3 4 5 5 4 2 3 6 4 5 6 7 7 5 2 2 5 7 8 6 7 8 8 11 14 12 13 13 12 12 12 12 12 13 13 11 9 8 8 6 6 6 5 4
5 5 5 4 5 4 2 7 15 17 5 10 16 16 18 22 12 7 5 2 3 5 7 10 7 7 7 11 11 13 14 14 13 12 13 14 12 12 13 12 11 8 7 6 7 6 5 5 4
Wind_Direction
312 308 332 30 52 71 246 257 237 288 42 135 2 72 187 227 145 207 43 123 131 137 148 145 141 135 130 126 124 123 125 130 138 136 126 122 115 107 101 99 102 110 105 98 96 97 95 94 88
328 318 35 87 113 140 266 246 279 254 160 56 33 5 27 84 92 134 104 134 138 139 148 147 144 138 135 134 132 132 135 137 139 130 130 127 120 112 103 104 107 110 111 106 99 97 97 96 96
314 205 77 153 173 199 232 210 328 184 93 98 20 201 122 100 92 148 138 143 138 140 149 151 146 142 141 140 137 137 139 138 132 134 135 135 127 118 109 109 108 108 107 104 100 97 95 96 97
5 11 345 155 228 241 224 256 310 84 44 92 125 296 36 289 155 164 139 140 141 146 148 153 150 146 144 144 140 142 144 147 138 132 136 136 133 126 120 118 116 113 108 103 99 97 95 95 91
15 72 215 219 244 255 252 239 277 220 131 167 222 273 93 7 112 137 134 147 147 147 151 156 155 150 147 150 146 148 148 148 146 144 143 144 144 141 135 129 126 120 112 106 104 103 101 99 96
281 130 157 229 248 249 264 259 196 214 179 278 150 93 153 146 116 163 136 126 137 146 155 159 156 153 151 153 149 152 154 149 149 147 151 151 156 156 151 141 136 130 124 120 113 111 109 102 91
170 127 212 217 245 263 250 270 184 193 187 256 250 101 142 100 172 164 129 134 135 141 147 153 156 154 155 156 153 154 157 156 151 145 145 153 169 170 155 148 143 137 130 124 122 128 119 113 106
141 140 212 217 237 267 273 264 258 161 202 170 92 151 169 186 170 158 135 137 138 148 152 148 149 152 155 159 157 158 158 156 152 145 149 150 153 161 151 151 148 142 137 130 119 123 128 123 115
142 183 210 220 227 249 299 321 320 194 115 95 37 145 173 160 140 126 129 133 146 158 159 152 149 151 153 159 164 162 160 163 160 157 158 148 139 140 147 153 151 148 147 142 140 142 135 123 102
168 204 230 217 235 264 272 22 299 145 149 36 76 35 130 141 142 148 169 166 155 161 167 163 163 163 162 166 163 163 163 168 166 170 172 167 162 157 157 157 158 156 155 153 153 143 134 127 107
201 193 230 269 269 306 290 312 343 354 171 214 191 183 213 168 168 169 184 185 183 167 169 172 173 173 166 160 162 164 168 173 180 180 188 186 182 164 154 160 160 162 162 166 152 139 133 120 106
242 225 235 260 269 279 281 310 330 121 283 310 251 166 172 272 181 183 190 199 188 185 174 177 178 177 175 161 166 172 171 180 184 190 198 169 162 161 165 164 169 173 174 175 159 160 118 98 79
229 243 248 250 283 260 276 273 250 290 298 306 315 337 261 253 229 225 209 202 197 195 189 175 176 176 172 162 170 170 183 189 190 185 197 178 173 177 171 165 170 174 170 158 130 125 103 86 80
215 193 273 296 311 320 267 260 253 301 294 305 306 293 226 244 260 259 218 243 213 193 191 189 168 171 171 174 180 173 187 195 187 183 193 181 183 179 151 149 152 158 146 133 134 122 105 88 82
123 47 342 309 289 254 342 279 232 238 259 268 277 277 287 220 240 241 259 219 224 210 192 186 176 172 174 179 183 185 192 194 189 186 182 180 181 156 147 146 144 156 142 130 121 101 91 71 47
70 52 329 246 233 237 167 256 248 237 231 247 254 254 256 274 231 229 233 252 231 230 188 191 188 172 177 182 187 193 193 188 175 178 181 179 168 150 150 147 151 148 137 136 116 110 79 76 55
192 225 222 296 246 214 182 209 240 245 246 251 253 243 241 245 251 243 230 230 246 216 218 196 192 182 176 182 186 198 187 185 165 169 172 165 153 155 149 149 149 149 134 135 127 76 108 72 19
192 220 251 230 295 241 249 253 265 278 267 257 240 248 240 236 240 238 228 220 227 234 214 194 201 190 188 184 180 187 168 182 175 170 176 159 156 151 139 138 146 148 133 130 120 114 61 97 359
235 294 291 277 300 275 247 259 261 268 266 271 268 250 254 251 246 230 235 234 222 228 218 200 188 193 185 188 188 192 177 186 178 180 163 156 158 153 145 147 145 152 143 151 140 119 113 35 5
288 277 281 295 339 1 309 294 284 260 258 245 251 244 244 248 253 258 255 249 237 225 218 224 199 200 191 188 190 176 171 160 180 163 150 154 156 157 147 152 157 155 136 144 143 135 121 99 24
264 279 287 266 331 343 349 291 259 281 247 251 246 246 245 241 246 242 243 243 239 237 226 219 203 201 205 194 154 93 90 81 92 146 149 153 150 154 149 155 154 146 136 152 148 144 140 142 41
58 16 64 34 38 254 72 291 283 270 266 268 243 236 237 240 233 229 223 231 238 243 246 226 210 192 207 185 170 168 174 172 179 163 156 145 155 150 146 149 145 141 135 141 143 143 139 131 148
180 86 67 37 6 357 264 220 273 256 276 261 243 265 239 231 228 229 228 233 237 217 214 227 237 213 190 208 180 174 175 151 125 133 138 146 153 151 139 152 148 145 144 144 139 141 131 134 137
104 69 24 28 74 323 222 175 275 239 219 134 283 288 231 237 238 213 182 146 267 308 258 234 230 235 209 195 181 182 155 145 141 151 153 159 157 151 148 154 152 142 148 150 146 137 122 123 117
85 73 356 351 254 236 122 183 256 274 276 273 275 273 340 158 164 160 154 115 45 350 324 288 237 229 219 197 178 165 161 162 160 160 164 161 162 166 155 149 147 146 151 132 131 129 124 138 135
165 166 161 226 227 282 314 237 255 237 258 267 234 213 210 223 193 178 124 75 21 346 322 293 257 232 200 183 170 162 157 151 153 157 158 168 178 157 146 138 137 140 141 132 130 126 124 139 134
193 195 164 19 309 34 243 297 307 277 336 4 17 303 301 281 216 145 126 90 8 321 295 271 258 227 195 170 160 156 153 148 155 149 153 154 157 156 139 137 137 140 144 137 134 134 134 142 145
148 169 87 11 251 269 283 264 245 328 10 349 5 16 7 54 110 248 102 59 332 298 300 296 239 212 177 164 155 144 142 140 141 144 150 156 159 154 139 135 142 141 154 128 131 135 143 140 142
171 202 207 173 166 218 293 263 228 189 304 4 345 342 319 290 235 225 204 177 296 311 328 304 238 189 152 145 134 130 134 138 139 145 153 154 156 151 141 139 142 152 148 133 137 138 144 141 146
165 178 162 134 273 249 193 265 257 274 295 325 317 332 337 319 249 222 200 163 341 327 337 310 245 150 122 128 130 130 137 142 143 147 154 154 146 141 137 135 141 137 127 130 134 144 149 156 163